WXM80 ListenWXM80 Stop

You find our weather info also at:

UK Metoffice

WeatherCloud

Weather Underground

Northeastern Weather Network

AWEKAS

Citizen Weather Observer Program (CWOP)

HAMweather, WeatherForYou, PWS Weather


Weather Underground History page Text

Daily Summary for September 1, 2016 Units:  English    Metric   Both
« Previous Day
Next Day »
Daily Weekly Monthly Yearly Custom
  High: Low: Average:
Temperature: 76.9 °F 70.4 °F 73.5 °F
Dew Point: 72.5 °F 64.6 °F 70 °F
Humidity: 95 % 80 % 89 %
Wind Speed: 5.0 mph 0.0 mph 0.5 mph
Wind Gust: 9.0 mph - -
Wind:- - SSW
Pressure: 29.90 in 29.79 in -
Precipitation: 0.13 in    
Historical Graphs
 
 
Tabular Data for September 1, 2016
Time Temperature Dew Point Pressure Wind Wind Speed Wind Gust Humidity Rainfall Rate (Hourly)
00:00 76.9 °F 71.0 °F 29.84 in SSW 0.9 mph 3.5 mph 82 % 0.00 in
00:05 76.8 °F 70.9 °F 29.84 in WSW 1.4 mph 2.3 mph 82 % 0.00 in
00:11 76.7 °F 71.1 °F 29.84 in SW 1.2 mph 5.0 mph 83 % 0.00 in
00:16 76.7 °F 71.1 °F 29.84 in SW 0.2 mph 1.2 mph 83 % 0.00 in
00:21 76.6 °F 71.0 °F 29.84 in SSW 0.9 mph 3.5 mph 83 % 0.00 in
00:26 76.5 °F 70.9 °F 29.84 in South 0.1 mph 1.2 mph 83 % 0.00 in
00:31 76.4 °F 70.9 °F 29.83 in SSW 0.3 mph 1.2 mph 83 % 0.00 in
00:36 76.3 °F 70.8 °F 29.84 in SSW 1.3 mph 3.0 mph 83 % 0.00 in
00:41 76.2 °F 71.0 °F 29.83 in WSW 0.5 mph 2.0 mph 84 % 0.00 in
00:46 76.1 °F 70.6 °F 29.83 in WSW 0.3 mph 1.2 mph 83 % 0.00 in
00:51 76.1 °F 70.6 °F 29.84 in WSW 1.1 mph 3.5 mph 83 % 0.00 in
00:56 76.0 °F 70.5 °F 29.83 in WSW 1.7 mph 2.3 mph 83 % 0.00 in
01:02 75.9 °F 70.4 °F 29.83 in SW 1.0 mph 2.3 mph 83 % 0.00 in
01:07 75.8 °F 70.3 °F 29.83 in South 2.1 mph 4.0 mph 83 % 0.00 in
01:12 75.8 °F 70.3 °F 29.83 in South 0.4 mph 2.3 mph 83 % 0.00 in
01:17 75.7 °F 69.8 °F 29.82 in SSW 0.7 mph 2.3 mph 82 % 0.00 in
01:22 75.7 °F 69.8 °F 29.82 in West 0.9 mph 3.5 mph 82 % 0.00 in
01:27 75.7 °F 69.5 °F 29.82 in South 2.3 mph 3.5 mph 81 % 0.00 in
01:32 75.6 °F 69.4 °F 29.82 in SSW 2.1 mph 4.6 mph 81 % 0.00 in
01:37 75.7 °F 69.5 °F 29.82 in SW 1.6 mph 3.0 mph 81 % 0.00 in
01:42 75.7 °F 69.5 °F 29.82 in SW 2.3 mph 3.5 mph 81 % 0.00 in
01:47 75.7 °F 69.1 °F 29.81 in WSW 2.3 mph 3.5 mph 80 % 0.00 in
01:53 75.8 °F 69.2 °F 29.81 in SW 1.1 mph 2.3 mph 80 % 0.00 in
01:58 75.8 °F 69.2 °F 29.81 in SW 0.9 mph 3.5 mph 80 % 0.00 in
02:03 75.8 °F 69.2 °F 29.81 in WSW 1.8 mph 7.0 mph 80 % 0.00 in
02:08 75.8 °F 69.2 °F 29.81 in SSW 2.0 mph 3.5 mph 80 % 0.00 in
02:13 75.9 °F 69.3 °F 29.81 in WSW 1.3 mph 3.0 mph 80 % 0.00 in
02:18 75.9 °F 69.3 °F 29.81 in West 1.9 mph 3.5 mph 80 % 0.00 in
02:28 75.9 °F 69.6 °F 29.80 in WSW 0.3 mph 2.3 mph 81 % 0.00 in
02:33 75.9 °F 69.6 °F 29.79 in Calm     81 % 0.00 in
02:38 75.9 °F 69.6 °F 29.80 in SW 0.1 mph   81 % 0.00 in
02:44 75.8 °F 69.6 °F 29.79 in SSE 0.2 mph 1.2 mph 81 % 0.00 in
02:49 75.8 °F 69.6 °F 29.79 in Calm   1.2 mph 81 % 0.00 in
02:54 75.7 °F 69.8 °F 29.79 in Calm     82 % 0.00 in
02:59 75.7 °F 69.8 °F 29.80 in WSW 0.2 mph 1.0 mph 82 % 0.00 in
03:04 75.6 °F 69.7 °F 29.80 in Calm   1.2 mph 82 % 0.00 in
03:09 75.5 °F 69.6 °F 29.80 in SW 0.6 mph 4.6 mph 82 % 0.00 in
03:14 75.5 °F 69.6 °F 29.79 in SW 1.0 mph 2.3 mph 82 % 0.00 in
03:19 75.5 °F 69.6 °F 29.79 in Calm   4.6 mph 82 % 0.00 in
03:24 75.4 °F 69.5 °F 29.79 in SW 2.1 mph 2.3 mph 82 % 0.00 in
03:29 75.4 °F 69.5 °F 29.79 in SW 0.7 mph 2.3 mph 82 % 0.00 in
03:35 75.3 °F 69.4 °F 29.79 in SW 0.4 mph 2.3 mph 82 % 0.00 in
03:40 75.3 °F 69.4 °F 29.79 in Calm   1.2 mph 82 % 0.00 in
03:45 75.3 °F 69.8 °F 29.80 in SW 1.2 mph 2.3 mph 83 % 0.00 in
03:50 75.3 °F 69.8 °F 29.79 in WSW 0.6 mph 2.3 mph 83 % 0.00 in
03:55 75.2 °F 69.7 °F 29.79 in SW 1.1 mph 3.5 mph 83 % 0.00 in
04:00 75.2 °F 69.7 °F 29.79 in SW 0.2 mph 1.2 mph 83 % 0.00 in
04:05 75.2 °F 69.7 °F 29.79 in SW 0.1 mph 1.2 mph 83 % 0.00 in
04:10 75.1 °F 69.6 °F 29.79 in Calm     83 % 0.00 in
04:15 75.1 °F 69.6 °F 29.80 in Calm     83 % 0.00 in
04:20 75.1 °F 69.9 °F 29.80 in Calm   1.2 mph 84 % 0.00 in
04:26 75.0 °F 70.2 °F 29.80 in Calm   2.0 mph 85 % 0.00 in
04:31 75.0 °F 70.5 °F 29.79 in Calm   1.0 mph 86 % 0.00 in
04:36 74.9 °F 70.8 °F 29.79 in Calm     87 % 0.00 in
04:41 74.8 °F 70.7 °F 29.79 in Calm     87 % 0.00 in
04:46 74.6 °F 70.5 °F 29.79 in Calm     87 % 0.00 in
04:56 74.3 °F 70.5 °F 29.80 in Calm     88 % 0.00 in
05:01 74.2 °F 70.4 °F 29.80 in Calm   1.2 mph 88 % 0.01 in
05:06 74.0 °F 70.6 °F 29.80 in SW 0.4 mph 1.2 mph 89 % 0.01 in
05:11 73.9 °F 70.8 °F 29.79 in Calm   1.2 mph 90 % 0.01 in
05:16 73.8 °F 70.7 °F 29.80 in Calm     90 % 0.01 in
05:21 73.7 °F 70.6 °F 29.79 in Calm     90 % 0.01 in
05:26 73.6 °F 70.5 °F 29.80 in Calm     90 % 0.01 in
05:31 73.5 °F 70.4 °F 29.80 in Calm     90 % 0.01 in
05:36 73.4 °F 70.6 °F 29.80 in SW 0.3 mph 2.3 mph 91 % 0.01 in
05:46 73.2 °F 70.1 °F 29.80 in SW 0.1 mph   90 % 0.01 in
05:52 73.1 °F 70.3 °F 29.80 in SW 0.7 mph 1.2 mph 91 % 0.01 in
05:57 73.0 °F 70.2 °F 29.80 in Calm   1.2 mph 91 % 0.01 in
06:02 73.0 °F 70.2 °F 29.80 in Calm     91 % 0.01 in
06:07 72.9 °F 70.1 °F 29.80 in Calm     91 % 0.01 in
06:12 72.8 °F 70.0 °F 29.80 in Calm     91 % 0.01 in
06:17 72.7 °F 70.2 °F 29.80 in Calm     92 % 0.01 in
06:22 72.7 °F 70.2 °F 29.80 in Calm     92 % 0.01 in
06:27 72.6 °F 70.1 °F 29.80 in Calm   1.0 mph 92 % 0.01 in
06:32 72.6 °F 70.1 °F 29.81 in SW 0.5 mph 2.3 mph 92 % 0.01 in
06:37 72.5 °F 70.0 °F 29.81 in Calm     92 % 0.01 in
06:43 72.5 °F 70.0 °F 29.81 in Calm   1.2 mph 92 % 0.01 in
06:48 72.5 °F 70.4 °F 29.80 in SW 0.2 mph 1.2 mph 93 % 0.01 in
06:53 72.5 °F 70.4 °F 29.81 in WSW 0.3 mph 1.2 mph 93 % 0.01 in
06:58 72.5 °F 70.4 °F 29.81 in Calm   1.2 mph 93 % 0.01 in
07:03 72.5 °F 70.4 °F 29.81 in West 0.4 mph 1.2 mph 93 % 0.00 in
07:08 72.5 °F 70.7 °F 29.81 in Calm     94 % 0.00 in
07:13 72.5 °F 70.7 °F 29.81 in West 0.1 mph 1.0 mph 94 % 0.00 in
07:18 72.5 °F 70.7 °F 29.81 in West 0.3 mph 3.5 mph 94 % 0.01 in
07:23 72.5 °F 70.7 °F 29.81 in Calm     94 % 0.01 in
07:28 72.5 °F 70.7 °F 29.81 in WSW 2.0 mph 5.0 mph 94 % 0.02 in
07:34 72.6 °F 70.8 °F 29.81 in WSW 0.9 mph 3.5 mph 94 % 0.02 in
07:44 72.6 °F 70.8 °F 29.81 in WSW 0.1 mph 2.3 mph 94 % 0.02 in
07:49 72.6 °F 71.1 °F 29.81 in WSW 1.2 mph 3.5 mph 95 % 0.02 in
07:54 72.6 °F 71.1 °F 29.81 in West 1.4 mph 3.5 mph 95 % 0.02 in
08:04 72.6 °F 70.8 °F 29.81 in West 2.6 mph 3.5 mph 94 % 0.02 in
08:09 72.5 °F 70.7 °F 29.81 in West 1.5 mph 3.5 mph 94 % 0.03 in
08:14 72.5 °F 70.7 °F 29.81 in West 0.5 mph 1.2 mph 94 % 0.03 in
08:19 72.4 °F 70.6 °F 29.81 in Calm   1.2 mph 94 % 0.02 in
08:25 72.4 °F 70.6 °F 29.81 in West 0.9 mph 2.3 mph 94 % 0.02 in
08:30 72.5 °F 70.7 °F 29.81 in West 0.1 mph 1.2 mph 94 % 0.01 in
08:35 72.5 °F 70.7 °F 29.81 in Calm     94 % 0.01 in
08:40 72.4 °F 70.6 °F 29.81 in Calm     94 % 0.01 in
08:45 72.5 °F 70.7 °F 29.81 in Calm     94 % 0.01 in
08:50 72.5 °F 70.7 °F 29.81 in Calm     94 % 0.01 in
08:55 72.5 °F 70.7 °F 29.81 in West 0.1 mph 2.0 mph 94 % 0.01 in
09:00 72.6 °F 70.8 °F 29.82 in West 0.1 mph 1.2 mph 94 % 0.01 in
09:05 72.6 °F 70.8 °F 29.82 in Calm   1.2 mph 94 % 0.01 in
09:10 72.7 °F 71.2 °F 29.82 in WSW 0.9 mph 3.0 mph 95 % 0.00 in
09:15 72.7 °F 71.2 °F 29.82 in WSW 0.5 mph 1.2 mph 95 % 0.00 in
09:20 72.7 °F 71.2 °F 29.82 in SW 1.2 mph 2.3 mph 95 % 0.00 in
09:25 72.7 °F 70.9 °F 29.83 in Calm   1.2 mph 94 % 0.00 in
09:31 72.8 °F 71.3 °F 29.83 in Calm   2.0 mph 95 % 0.00 in
09:36 72.8 °F 71.0 °F 29.83 in Calm   1.0 mph 94 % 0.00 in
09:41 72.8 °F 71.0 °F 29.83 in Calm     94 % 0.00 in
09:46 72.8 °F 71.0 °F 29.83 in WNW 2.0 mph 4.0 mph 94 % 0.00 in
09:51 72.8 °F 70.9 °F 29.83 in Calm   2.0 mph 94 % 0.00 in
09:56 72.6 °F 70.5 °F 29.83 in Calm     93 % 0.00 in
10:01 72.6 °F 70.5 °F 29.83 in Calm     93 % 0.03 in
10:06 72.6 °F 70.5 °F 29.83 in Calm     93 % 0.04 in
10:11 72.6 °F 70.8 °F 29.83 in Calm     94 % 0.05 in
10:16 72.6 °F 70.8 °F 29.83 in Calm     94 % 0.05 in
10:21 72.7 °F 70.9 °F 29.83 in Calm     94 % 0.06 in
10:26 72.6 °F 70.8 °F 29.83 in Calm     94 % 0.06 in
10:31 72.6 °F 70.5 °F 29.83 in Calm     93 % 0.06 in
10:36 72.5 °F 70.4 °F 29.83 in Calm     93 % 0.06 in
10:42 72.6 °F 70.8 °F 29.83 in Calm     94 % 0.06 in
10:47 72.6 °F 70.8 °F 29.82 in Calm     94 % 0.06 in
10:52 72.9 °F 71.4 °F 29.82 in Calm   1.2 mph 95 % 0.05 in
10:57 73.0 °F 71.5 °F 29.82 in Calm     95 % 0.04 in
11:02 73.0 °F 71.2 °F 29.82 in Calm     94 % 0.04 in
11:07 73.0 °F 71.2 °F 29.83 in Calm     94 % 0.03 in
11:12 73.0 °F 70.9 °F 29.83 in Calm     93 % 0.02 in
11:17 73.0 °F 70.9 °F 29.82 in Calm     93 % 0.02 in
11:22 73.0 °F 70.9 °F 29.82 in Calm     93 % 0.01 in
11:27 73.0 °F 70.9 °F 29.82 in Calm     93 % 0.01 in
11:33 73.0 °F 70.9 °F 29.83 in Calm     93 % 0.00 in
11:38 73.0 °F 70.9 °F 29.82 in Calm     93 % 0.00 in
11:43 73.1 °F 71.0 °F 29.83 in Calm     93 % 0.00 in
11:48 73.2 °F 71.1 °F 29.83 in Calm     93 % 0.00 in
11:53 73.3 °F 71.2 °F 29.83 in Calm     93 % 0.00 in
11:58 73.5 °F 71.4 °F 29.83 in Calm     93 % 0.00 in
12:03 73.5 °F 71.4 °F 29.83 in Calm     93 % 0.00 in
12:08 73.5 °F 71.0 °F 29.82 in Calm     92 % 0.00 in
12:13 73.7 °F 71.2 °F 29.82 in Calm   1.0 mph 92 % 0.00 in
12:18 73.8 °F 71.3 °F 29.82 in Calm     92 % 0.00 in
12:24 73.9 °F 71.4 °F 29.82 in Calm     92 % 0.00 in
12:29 74.0 °F 71.5 °F 29.82 in Calm     92 % 0.00 in
12:34 74.1 °F 71.3 °F 29.82 in Calm     91 % 0.00 in
12:39 74.1 °F 71.3 °F 29.82 in Calm     91 % 0.00 in
12:44 74.2 °F 71.4 °F 29.82 in Calm     91 % 0.00 in
12:49 74.4 °F 71.6 °F 29.82 in Calm     91 % 0.00 in
12:54 74.4 °F 71.3 °F 29.82 in Calm     90 % 0.00 in
12:59 74.5 °F 71.4 °F 29.82 in NE 0.3 mph 1.2 mph 90 % 0.00 in
13:04 74.7 °F 71.9 °F 29.82 in Calm     91 % 0.00 in
13:09 74.9 °F 72.1 °F 29.81 in Calm     91 % 0.00 in
13:15 75.1 °F 72.3 °F 29.82 in Calm     91 % 0.00 in
13:20 75.3 °F 72.5 °F 29.82 in Calm     91 % 0.00 in
13:25 75.5 °F 72.4 °F 29.82 in Calm     90 % 0.00 in
13:30 75.5 °F 71.7 °F 29.82 in Calm     88 % 0.00 in
13:35 75.5 °F 72.0 °F 29.82 in Calm     89 % 0.00 in
13:40 75.5 °F 71.7 °F 29.82 in Calm     88 % 0.00 in
13:45 75.4 °F 71.6 °F 29.82 in Calm     88 % 0.00 in
13:50 75.3 °F 71.5 °F 29.82 in Calm     88 % 0.00 in
13:55 75.1 °F 71.0 °F 29.82 in Calm     87 % 0.00 in
14:00 74.9 °F 71.1 °F 29.82 in Calm   1.0 mph 88 % 0.00 in
14:06 74.7 °F 70.5 °F 29.82 in Calm   1.0 mph 87 % 0.00 in
14:11 74.5 °F 70.7 °F 29.82 in Calm   3.0 mph 88 % 0.00 in
14:16 74.4 °F 70.6 °F 29.82 in Calm   2.0 mph 88 % 0.00 in
14:21 74.3 °F 70.5 °F 29.82 in Calm     88 % 0.00 in
14:26 74.2 °F 70.4 °F 29.81 in Calm   1.0 mph 88 % 0.00 in
14:31 74.1 °F 70.3 °F 29.81 in NE 1.0 mph 2.0 mph 88 % 0.00 in
14:36 74.1 °F 70.7 °F 29.82 in Calm   2.0 mph 89 % 0.00 in
14:41 74.2 °F 70.7 °F 29.81 in Calm   3.0 mph 89 % 0.00 in
14:45 74.2 °F 70.7 °F 29.81 in NNE 0.8 mph 2.3 mph 89 % 0.00 in
14:51 74.3 °F 71.2 °F 29.81 in NE 1.0 mph 4.0 mph 90 % 0.00 in
14:56 74.4 °F 71.3 °F 29.81 in ENE 1.0 mph 4.0 mph 90 % 0.00 in
15:00 74.6 °F 71.5 °F 29.81 in NE 0.6 mph 2.3 mph 90 % 0.01 in
15:06 74.6 °F 70.8 °F 29.81 in Calm   2.0 mph 88 % 0.00 in
15:11 74.5 °F 70.4 °F 29.82 in Calm   2.0 mph 87 % 0.00 in
15:15 74.6 °F 70.5 °F 29.82 in NE 0.7 mph 2.3 mph 87 % 0.01 in
15:21 74.6 °F 70.5 °F 29.82 in NE 2.0 mph 4.0 mph 87 % 0.00 in
15:26 74.6 °F 70.8 °F 29.82 in North 1.0 mph 3.0 mph 88 % 0.00 in
15:30 74.5 °F 70.4 °F 29.82 in North 0.9 mph 2.3 mph 87 % 0.01 in
15:36 74.5 °F 70.4 °F 29.81 in NNE 2.0 mph 4.0 mph 87 % 0.00 in
15:41 74.5 °F 70.0 °F 29.81 in Calm   1.0 mph 86 % 0.00 in
15:45 74.6 °F 70.5 °F 29.81 in NE 0.3 mph 1.2 mph 87 % 0.01 in
15:51 74.6 °F 70.1 °F 29.81 in NE 1.0 mph 3.0 mph 86 % 0.00 in
15:56 74.6 °F 69.8 °F 29.81 in Calm   2.0 mph 85 % 0.00 in
16:00 74.6 °F 69.8 °F 29.82 in Calm     85 % 0.00 in
16:06 74.6 °F 70.1 °F 29.82 in Calm   1.0 mph 86 % 0.00 in
16:11 74.7 °F 70.6 °F 29.82 in Calm     87 % 0.00 in
16:15 74.7 °F 70.6 °F 29.82 in Calm   1.2 mph 87 % 0.00 in
16:21 74.7 °F 70.5 °F 29.82 in Calm   1.0 mph 87 % 0.00 in
16:25 74.5 °F 70.0 °F 29.82 in Calm   1.0 mph 86 % 0.00 in
16:30 74.5 °F 70.0 °F 29.82 in Calm   1.2 mph 86 % 0.00 in
16:36 74.5 °F 70.0 °F 29.82 in Calm   1.0 mph 86 % 0.00 in
16:40 74.4 °F 69.9 °F 29.82 in Calm     86 % 0.00 in
16:46 74.4 °F 69.9 °F 29.82 in Calm     86 % 0.00 in
16:51 74.4 °F 70.3 °F 29.82 in Calm     87 % 0.00 in
16:56 74.3 °F 70.2 °F 29.82 in Calm   1.0 mph 87 % 0.00 in
17:01 74.3 °F 69.8 °F 29.82 in Calm     86 % 0.00 in
17:06 74.3 °F 69.8 °F 29.82 in Calm   2.0 mph 86 % 0.00 in
17:10 74.3 °F 70.2 °F 29.82 in ENE 1.0 mph 4.0 mph 87 % 0.00 in
17:16 74.1 °F 69.6 °F 29.82 in SSE 0.9 mph 3.5 mph 86 % 0.00 in
17:21 74.1 °F 69.6 °F 29.82 in SE 2.0 mph 4.0 mph 86 % 0.00 in
17:25 74.0 °F 69.5 °F 29.82 in Calm   4.0 mph 86 % 0.00 in
17:30 73.8 °F 69.3 °F 29.82 in SE 1.0 mph 5.0 mph 86 % 0.00 in
17:35 73.7 °F 69.2 °F 29.82 in SSE 1.0 mph 6.0 mph 86 % 0.00 in
17:41 73.5 °F 69.4 °F 29.82 in SSE 3.0 mph 8.0 mph 87 % 0.00 in
17:45 73.4 °F 69.7 °F 29.82 in SSE 1.0 mph 6.0 mph 88 % 0.00 in
17:51 73.3 °F 69.5 °F 29.82 in SSE 1.0 mph 4.0 mph 88 % 0.00 in
17:56 73.1 °F 69.0 °F 29.82 in SE 1.0 mph 5.0 mph 87 % 0.00 in
18:01 73.2 °F 69.1 °F 29.81 in SE 0.5 mph 2.3 mph 87 % 0.00 in
18:06 73.1 °F 68.7 °F 29.82 in SSE 1.0 mph 3.0 mph 86 % 0.00 in
18:11 73.0 °F 68.6 °F 29.82 in Calm   4.0 mph 86 % 0.00 in
18:15 73.0 °F 68.9 °F 29.82 in Calm   3.0 mph 87 % 0.00 in
18:20 73.1 °F 69.0 °F 29.82 in SE 1.0 mph 5.0 mph 87 % 0.00 in
18:25 73.1 °F 68.7 °F 29.82 in Calm   3.0 mph 86 % 0.00 in
18:30 73.1 °F 69.0 °F 29.81 in Calm   1.0 mph 87 % 0.00 in
18:35 73.1 °F 69.0 °F 29.82 in Calm     87 % 0.00 in
18:41 73.1 °F 69.0 °F 29.82 in Calm   1.0 mph 87 % 0.00 in
18:46 73.1 °F 69.0 °F 29.82 in South 2.0 mph 4.0 mph 87 % 0.00 in
18:51 73.1 °F 69.0 °F 29.82 in Calm   4.0 mph 87 % 0.00 in
18:56 73.0 °F 68.9 °F 29.82 in West 2.0 mph 4.0 mph 87 % 0.00 in
19:01 72.9 °F 68.8 °F 29.83 in WSW 0.1 mph 1.2 mph 87 % 0.00 in
19:06 72.8 °F 68.7 °F 29.84 in WSW 1.7 mph 2.3 mph 87 % 0.00 in
19:11 72.7 °F 68.9 °F 29.83 in WSW 1.8 mph 3.5 mph 88 % 0.00 in
19:16 72.6 °F 68.8 °F 29.84 in WSW 0.6 mph 2.3 mph 88 % 0.00 in
19:21 72.5 °F 68.7 °F 29.84 in Calm     88 % 0.00 in
19:26 72.3 °F 68.5 °F 29.84 in WSW 0.8 mph 2.0 mph 88 % 0.00 in
19:31 72.2 °F 68.8 °F 29.84 in SW 0.8 mph 2.3 mph 89 % 0.00 in
19:36 72.1 °F 68.7 °F 29.85 in SW 1.1 mph 2.0 mph 89 % 0.00 in
19:41 72.0 °F 68.6 °F 29.86 in NW 1.6 mph 3.0 mph 89 % 0.00 in
19:46 71.8 °F 68.4 °F 29.85 in West 0.2 mph 3.5 mph 89 % 0.00 in
19:52 71.7 °F 68.6 °F 29.86 in Calm   3.5 mph 90 % 0.00 in
19:57 71.7 °F 68.6 °F 29.85 in Calm   1.2 mph 90 % 0.00 in
20:02 71.6 °F 68.8 °F 29.86 in West 1.6 mph 3.5 mph 91 % 0.00 in
20:07 71.6 °F 68.8 °F 29.85 in Calm     91 % 0.00 in
20:12 71.6 °F 68.8 °F 29.86 in Calm     91 % 0.00 in
20:17 71.6 °F 69.2 °F 29.86 in West 1.2 mph 3.0 mph 92 % 0.00 in
20:27 71.6 °F 69.2 °F 29.86 in SW 1.3 mph 6.0 mph 92 % 0.00 in
20:32 71.6 °F 69.2 °F 29.86 in SW 0.5 mph 1.2 mph 92 % 0.00 in
20:37 71.6 °F 69.2 °F 29.86 in WSW 0.9 mph 3.5 mph 92 % 0.00 in
20:43 71.6 °F 69.5 °F 29.86 in SW 1.3 mph 3.5 mph 93 % 0.00 in
20:48 71.5 °F 69.4 °F 29.86 in WSW 1.6 mph 3.5 mph 93 % 0.00 in
20:53 71.5 °F 69.4 °F 29.86 in WSW 0.5 mph 2.3 mph 93 % 0.00 in
20:58 71.5 °F 69.4 °F 29.86 in WSW 1.4 mph 4.0 mph 93 % 0.00 in
21:03 71.5 °F 69.4 °F 29.86 in WSW 1.3 mph 2.3 mph 93 % 0.00 in
21:08 71.5 °F 69.4 °F 29.87 in WSW 0.9 mph 1.2 mph 93 % 0.00 in
21:13 71.5 °F 69.4 °F 29.87 in SW 1.3 mph 4.6 mph 93 % 0.00 in
21:18 71.5 °F 69.4 °F 29.87 in SW 1.6 mph 2.3 mph 93 % 0.00 in
21:23 71.5 °F 69.4 °F 29.87 in SW 1.6 mph 3.0 mph 93 % 0.00 in
21:28 71.5 °F 69.7 °F 29.87 in Calm   1.2 mph 94 % 0.00 in
21:34 71.5 °F 69.7 °F 29.87 in SW 0.6 mph 2.3 mph 94 % 0.00 in
21:39 71.5 °F 69.7 °F 29.88 in Calm     94 % 0.00 in
21:44 71.4 °F 69.6 °F 29.88 in Calm   1.2 mph 94 % 0.00 in
21:49 71.5 °F 69.7 °F 29.88 in Calm     94 % 0.00 in
21:54 71.4 °F 69.6 °F 29.88 in SW 0.6 mph 2.0 mph 94 % 0.00 in
21:59 71.4 °F 69.6 °F 29.88 in WSW 0.3 mph 2.3 mph 94 % 0.00 in
22:04 71.4 °F 69.6 °F 29.89 in Calm     94 % 0.00 in
22:09 71.4 °F 69.6 °F 29.89 in NW 0.7 mph 1.2 mph 94 % 0.00 in
22:14 71.3 °F 69.5 °F 29.89 in WNW 0.7 mph 5.0 mph 94 % 0.00 in
22:19 71.3 °F 69.5 °F 29.89 in WNW 0.4 mph 3.5 mph 94 % 0.00 in
22:25 71.2 °F 69.4 °F 29.89 in WNW 0.6 mph 3.5 mph 94 % 0.00 in
22:30 71.1 °F 69.0 °F 29.89 in WNW 1.1 mph 3.5 mph 93 % 0.00 in
22:35 71.1 °F 69.0 °F 29.89 in WNW 0.7 mph 3.5 mph 93 % 0.00 in
22:40 71.0 °F 68.9 °F 29.89 in Calm   1.2 mph 93 % 0.00 in
22:45 70.8 °F 68.4 °F 29.89 in West 0.6 mph 3.0 mph 92 % 0.00 in
22:50 70.7 °F 67.9 °F 29.89 in NW 2.5 mph 5.8 mph 91 % 0.00 in
22:55 70.6 °F 67.8 °F 29.89 in West 2.1 mph 4.6 mph 91 % 0.00 in
23:00 70.6 °F 67.5 °F 29.89 in WNW 0.8 mph 4.6 mph 90 % 0.00 in
23:05 70.6 °F 67.5 °F 29.89 in Calm   1.2 mph 90 % 0.00 in
23:10 70.5 °F 67.4 °F 29.89 in Calm     90 % 0.00 in
23:16 70.5 °F 67.4 °F 29.89 in NNW 1.0 mph 5.0 mph 90 % 0.00 in
23:21 70.5 °F 67.1 °F 29.89 in NE 2.7 mph 3.5 mph 89 % 0.00 in
23:26 70.5 °F 66.7 °F 29.90 in North 3.0 mph 6.0 mph 88 % 0.00 in
23:31 70.5 °F 66.7 °F 29.89 in North 2.0 mph 6.0 mph 88 % 0.00 in
23:36 70.5 °F 66.4 °F 29.89 in NE 1.3 mph 5.8 mph 87 % 0.00 in
23:41 70.5 °F 66.8 °F 29.89 in Calm   4.0 mph 88 % 0.00 in
23:46 70.5 °F 66.4 °F 29.90 in NNW 1.0 mph 6.0 mph 87 % 0.00 in
23:51 70.5 °F 65.8 °F 29.90 in NNW 3.7 mph 6.9 mph 85 % 0.00 in
23:56 70.4 °F 64.6 °F 29.90 in North 5.0 mph 9.0 mph 82 % 0.00 in
Crab Meadow Weather
Compliments of Weather Underground - 2.75 mb

Script developed by  Jim McMurry - jmcmurry@mwt.net Adapted for the template by  Wim van der Kuil - Leuven-Template.eu

Weather Terms: Lake Effect Snow Warning - Lake effect snowfall of 6 inches or more in 12 hours or less, or 8 inches or more in 24 hours or less.